User: anonymous   Login
Location: Via Auriletto, 13, 10098 Rivoli TO, Italia
(45.0746°N, 7.5214°E)
Time: 05:02:35
(UTC+02:00)
Language:

ESTCUBE 1 - Orbit

View from above orbital plane
View from above orbital plane
View from above satellite
View from above satellite

Ground track
Ground track

The orbit data is extracted from the following two-line orbital elements,

1 39161U 13021C   19146.81803549  .00000078  00000-0  20239-4 0  9991
2 39161  97.9869 232.0930 0010504  46.4149 313.7922 14.72195230325008
Epoch (UTC): 26 May 2019 19:37:58
Eccentricity: 0.0010504
inclination: 97.9869°
perigee height: 646 km
apogee height: 661 km
right ascension of ascending node: 232.0930°
argument of perigee: 46.4149°
revolutions per day: 14.72195230
mean anomaly at epoch: 313.7922°
orbit number at epoch: 32500

The dashed part of the orbit path shows where the satellite is in the earth's shadow,  

DLR